Theta_e
301 302 302 302 302 302 300 300 302 302 302 302 302 301 300 300 300 302 302 301 302 301 300 303 303 303 301 300 300 300 301 302 307 309 314 316 315 322 324 323 321 322 320 322
302 301 301 301 301 302 301 299 301 302 302 302 302 301 300 300 301 302 301 301 301 301 300 300 302 302 301 300 301 300 300 302 307 311 314 315 315 319 323 323 323 322 324 323
301 299 300 300 300 299 296 298 298 295 296 295 299 300 300 301 302 302 301 301 300 301 300 300 300 300 301 301 301 300 300 302 306 311 314 318 314 316 323 324 323 323 323 323
301 300 300 298 298 298 298 296 296 296 296 297 299 301 301 300 300 300 300 300 300 300 300 300 300 301 301 301 300 299 300 301 305 311 314 318 317 318 323 322 322 322 323 322
302 299 298 299 299 297 296 296 300 299 299 299 298 299 299 299 299 300 300 300 300 300 300 300 301 301 301 299 299 299 300 300 304 309 313 317 318 320 321 321 322 321 322 321
299 300 301 298 299 299 298 297 300 300 299 298 298 296 295 298 300 300 300 300 300 300 300 300 301 300 300 300 299 300 299 300 303 309 313 316 318 320 320 320 321 321 321 321
301 302 298 298 299 299 297 296 299 299 299 298 296 297 298 299 300 301 301 301 301 301 301 301 301 300 300 299 300 299 298 300 303 309 312 316 318 319 319 318 318 319 320 320
298 300 299 298 299 297 296 298 298 298 299 299 298 298 298 300 301 300 299 299 299 300 300 300 299 299 299 299 298 299 298 299 303 308 312 315 317 319 319 319 317 319 319 318
298 298 297 298 299 299 298 298 298 298 299 299 298 298 301 300 298 298 297 298 299 299 299 298 298 299 298 298 299 298 298 300 303 309 312 315 314 318 318 319 319 317 318 316
298 298 298 298 298 299 299 297 298 298 298 298 298 300 299 298 298 298 297 298 299 298 297 298 299 298 298 298 298 298 298 300 303 309 311 314 317 317 316 318 317 316 317 316
296 297 297 299 299 297 298 297 298 297 297 298 300 299 298 299 298 297 297 298 298 297 298 298 298 298 298 298 298 298 298 300 305 310 310 314 316 317 316 317 317 318 317 316
295 295 297 298 299 298 297 297 297 296 297 299 299 299 299 298 297 297 298 298 298 298 298 298 298 298 299 300 300 299 299 303 308 309 311 313 315 313 313 315 315 316 315 316
295 295 297 297 298 297 297 297 297 297 299 299 299 299 298 297 297 297 297 298 298 298 299 298 297 299 304 305 302 301 301 307 309 310 312 314 313 313 309 308 311 314 315 315
296 295 296 297 298 297 297 297 297 296 297 297 298 298 297 296 296 296 298 298 298 298 298 297 299 304 306 306 305 303 306 309 309 310 312 312 313 313 312 310 307 305 310 311
296 296 297 295 297 297 296 296 296 296 296 296 298 298 296 296 295 297 298 297 298 298 298 298 301 306 306 304 304 307 309 309 310 310 311 312 312 310 311 310 308 307 304 303
297 297 297 296 297 296 296 296 296 296 296 296 297 296 296 296 295 297 298 296 298 299 298 299 302 308 306 306 308 309 311 311 311 311 310 310 310 309 308 309 309 307 302 300
297 297 297 297 297 296 296 296 296 296 296 297 297 296 296 294 295 297 297 296 298 299 299 299 301 309 308 309 310 310 310 311 311 311 310 310 310 310 310 310 309 304 301 301
297 298 297 297 297 296 296 296 296 296 298 297 297 296 295 294 296 298 297 296 297 298 299 299 303 307 309 310 310 310 311 311 311 310 310 309 308 309 310 310 306 301 301 301
297 297 297 297 297 296 296 296 296 296 297 297 297 295 294 295 296 297 297 295 295 299 299 299 302 306 307 308 308 309 310 310 309 309 310 310 310 310 311 309 305 301 302 300
296 296 296 296 296 296 296 296 296 296 296 296 295 295 294 295 296 297 296 295 295 298 299 299 300 303 305 306 307 308 308 308 309 310 310 309 310 311 310 307 302 302 302 298
296 297 296 296 296 296 296 295 295 295 295 295 295 294 294 296 296 296 295 295 295 297 299 299 299 301 304 306 307 308 308 308 309 309 309 310 311 311 310 305 302 302 300 297
295 296 296 296 296 296 295 295 295 295 295 294 293 294 295 296 296 295 295 295 295 297 299 299 299 300 301 306 306 307 307 307 307 308 308 310 311 311 309 304 302 301 299 296
296 296 296 296 296 295 295 295 295 295 293 293 294 295 296 296 295 295 295 295 295 297 298 299 299 300 301 303 306 307 307 308 308 309 310 311 312 311 308 303 302 301 299 296
295 295 295 295 296 296 295 293 293 293 293 294 294 295 296 295 294 295 295 295 295 296 297 299 299 300 300 301 305 306 307 308 308 311 312 311 311 309 305 301 302 301 299 296
297 297 297 295 294 293 294 294 294 294 294 294 294 295 296 295 295 294 294 294 295 295 297 298 299 299 300 300 302 305 305 306 308 310 311 312 310 308 302 301 302 301 299 296
295 295 295 294 294 295 295 294 293 293 294 294 294 294 295 295 294 295 295 294 294 295 296 297 298 299 299 300 300 302 304 306 307 310 311 311 310 308 302 300 302 301 298 296
293 293 293 293 293 292 292 292 292 293 294 294 294 294 295 296 295 295 295 294 294 294 295 296 297 299 299 299 300 300 302 304 306 308 310 309 309 309 303 300 302 301 297 295
Wind_Speed
10 12 12 15 17 22 12 16 8 20 13 18 12 13 11 18 8 8 8 11 12 12 15 13 16 18 23 31 39 34 24 25 21 20 19 8 11 9 13 29 30 25 28 31
22 16 14 19 18 19 18 15 8 15 17 14 24 22 12 7 4 6 9 11 14 12 14 17 19 21 25 31 37 40 32 25 20 19 19 6 5 11 19 22 26 26 29 34
19 8 7 8 10 8 5 6 5 5 7 5 2 1 1 1 2 9 14 15 18 15 17 21 21 23 27 31 36 38 39 27 19 18 18 12 7 13 21 25 25 25 32 37
8 2 5 6 7 10 10 6 6 6 6 5 1 3 3 6 10 16 20 21 20 20 23 22 19 20 24 30 36 39 40 28 18 16 17 9 3 14 23 24 24 28 32 39
3 3 7 8 6 2 3 4 3 1 3 4 3 2 2 11 11 16 21 24 23 23 24 20 19 21 27 30 34 39 38 28 19 15 16 8 7 12 17 22 26 32 42 38
2 3 5 3 1 3 2 3 2 0 3 2 3 3 4 13 16 20 22 21 18 17 18 18 19 24 29 32 36 37 35 25 18 13 16 9 5 14 19 20 29 30 37 37
9 6 6 6 11 2 1 5 4 5 1 2 2 4 11 14 19 19 17 18 21 21 20 21 24 27 29 35 37 31 31 24 15 11 15 8 9 19 18 19 28 42 39 36
2 3 4 7 3 3 6 8 5 4 4 4 5 8 11 15 16 17 19 20 21 23 24 25 27 29 38 35 29 28 29 22 13 10 9 7 12 25 21 29 35 39 37 39
4 5 12 25 16 20 21 19 11 6 6 5 8 10 11 14 17 20 21 22 22 23 25 25 32 36 33 28 25 26 24 19 12 7 6 18 14 25 30 30 32 39 39 41
5 5 12 31 33 30 27 24 15 9 7 5 7 7 11 15 19 23 23 24 25 27 27 34 36 35 28 27 26 23 21 15 10 5 9 25 22 29 24 30 34 42 40 39
12 19 24 19 15 26 23 9 9 6 3 2 6 9 12 17 22 24 24 25 28 29 33 43 40 33 30 27 20 18 18 14 11 5 13 25 26 21 24 28 27 33 32 34
7 16 13 21 24 22 6 3 4 2 2 5 7 9 14 18 22 24 25 28 30 33 47 43 42 39 27 15 12 17 19 17 12 16 20 27 26 28 29 27 28 28 28 32
27 28 21 29 25 18 9 6 4 4 3 7 8 9 14 21 22 23 25 28 28 42 46 46 43 37 16 9 21 21 23 23 18 19 23 26 28 30 32 31 30 26 30 33
21 25 26 25 19 14 10 7 6 5 5 9 9 9 17 20 23 24 24 28 31 47 46 42 39 22 7 5 21 29 29 22 16 20 24 26 30 29 31 32 32 29 30 33
27 22 20 18 13 12 8 7 8 7 7 10 5 12 17 21 23 24 24 29 36 45 44 44 40 15 7 17 29 32 27 20 18 24 28 28 30 31 34 33 34 35 34 30
19 16 13 11 11 8 9 7 7 7 8 7 6 13 17 18 21 23 25 30 32 43 46 44 36 14 16 26 24 27 23 25 28 25 29 31 33 35 35 37 38 38 36 33
15 14 11 12 12 10 11 6 6 8 6 4 9 13 16 19 21 24 28 31 27 39 45 39 38 15 14 14 15 21 24 27 25 27 30 34 35 37 39 43 41 37 34 32
10 9 7 9 17 12 11 8 7 7 4 5 9 13 16 18 21 23 27 31 29 35 43 36 32 15 11 10 9 14 21 24 24 29 33 33 35 39 43 42 39 37 35 31
8 4 7 10 8 12 11 9 6 4 3 5 10 12 14 16 19 20 25 30 32 32 42 39 26 18 13 7 6 15 23 24 29 33 34 35 39 41 41 39 37 35 32 31
1 2 5 9 10 12 11 7 5 2 2 7 8 10 13 16 18 19 23 27 28 22 30 40 29 16 10 4 11 19 25 29 31 32 33 35 39 41 39 37 36 33 32 31
8 6 8 13 13 9 4 1 1 2 3 6 7 10 13 15 17 20 25 29 31 25 27 33 33 17 10 4 10 18 19 26 29 31 33 35 38 37 35 35 34 31 31 31
10 11 9 6 2 1 1 1 1 1 3 5 8 10 11 14 18 20 23 25 28 23 21 30 36 18 8 4 14 17 20 24 27 29 32 34 37 35 34 34 33 32 31 30
5 6 5 3 3 4 6 7 6 5 5 7 10 12 13 15 18 22 26 26 28 25 19 22 30 21 8 7 12 15 17 20 25 28 32 34 32 30 32 33 31 30 29 29
9 9 10 11 12 12 11 9 8 8 8 9 10 12 12 14 16 18 20 22 25 24 19 19 26 28 13 9 9 12 14 16 25 28 27 29 29 28 31 30 29 27 27 27
11 11 10 10 10 10 9 8 7 7 8 9 10 11 12 14 16 18 20 21 23 24 21 17 21 31 16 12 10 10 9 13 19 24 25 28 26 27 29 28 26 25 25 25
8 8 7 6 6 5 4 4 4 6 8 8 9 10 10 12 13 15 18 20 21 22 22 19 18 25 29 18 10 10 6 6 12 21 21 24 24 25 27 27 26 23 22 24
3 2 2 1 1 2 3 4 5 5 6 8 9 9 10 10 11 14 16 18 20 21 22 22 17 19 26 23 17 9 7 4 10 16 20 21 22 23 25 26 24 22 22 23
Wind_Direction
255 266 275 267 277 282 265 252 241 279 268 275 269 269 268 288 253 241 298 323 315 322 340 340 336 335 341 347 356 350 330 331 335 328 326 305 321 258 217 190 196 184 175 166
288 286 274 277 268 263 266 269 245 262 276 276 272 277 267 275 251 288 329 328 326 312 329 325 324 326 329 339 344 349 341 326 329 324 331 322 348 255 183 171 173 175 172 163
274 293 300 281 245 246 261 238 216 263 262 303 5 104 28 49 295 300 312 324 328 309 316 326 323 321 324 328 335 339 345 325 321 327 330 337 334 270 176 162 160 168 175 161
273 326 256 241 277 251 245 265 281 290 295 291 11 119 82 28 354 339 338 325 322 318 314 312 307 308 317 324 330 333 341 325 314 322 330 307 261 232 161 161 165 171 164 153
255 201 295 296 298 283 192 290 315 106 351 5 37 197 73 5 345 339 332 326 319 318 318 293 292 308 317 324 329 330 334 321 312 313 326 320 272 167 157 166 171 168 155 145
181 249 252 252 316 349 75 283 262 195 16 33 32 15 265 341 345 340 335 332 332 326 322 292 300 315 320 322 326 327 326 314 311 309 312 318 261 148 135 138 146 156 146 146
244 253 286 265 303 319 86 243 315 332 306 150 196 232 320 340 341 340 335 336 331 326 322 317 318 321 318 319 319 320 316 305 300 302 322 286 228 156 153 145 159 148 147 145
276 243 263 320 301 335 297 304 296 326 224 277 312 328 336 342 341 339 333 330 327 323 321 318 318 320 317 312 315 312 309 297 284 296 323 169 227 184 184 157 147 143 144 142
193 259 296 312 299 311 306 293 262 261 260 280 320 338 340 338 335 334 332 332 333 324 317 317 322 323 312 306 303 305 296 287 268 290 234 185 165 164 161 158 153 144 151 142
318 256 279 299 301 299 303 300 259 258 274 299 327 336 334 333 335 336 334 333 331 326 319 319 320 313 305 298 299 293 276 265 241 278 193 191 183 180 167 165 157 155 150 153
271 279 287 291 322 330 313 283 220 260 249 309 327 331 337 335 334 334 334 334 332 330 326 320 319 316 308 299 286 261 255 228 199 170 190 177 171 166 158 157 168 157 157 154
255 266 271 277 304 315 338 285 287 261 290 312 322 337 337 334 334 336 337 337 340 340 327 326 324 318 316 296 235 227 220 185 159 172 187 171 163 161 165 170 172 170 166 160
252 273 277 298 281 288 295 300 301 295 293 311 330 326 336 337 338 339 342 349 346 336 337 330 327 330 337 225 208 198 174 160 160 179 175 167 164 158 146 147 159 160 165 163
263 279 280 285 255 285 267 280 291 286 296 313 307 331 335 341 343 346 353 353 348 343 338 337 348 15 350 174 176 158 153 154 172 177 180 170 162 157 158 155 152 147 152 146
277 276 269 283 244 259 234 269 289 296 306 330 312 335 340 346 350 352 356 355 353 351 350 354 9 45 66 136 142 146 150 167 178 180 173 168 163 159 157 157 147 143 142 144
293 286 273 246 260 261 224 261 280 310 323 313 321 340 346 350 354 358 359 1 0 359 1 10 24 78 102 130 145 150 155 166 168 173 166 163 159 156 156 150 148 147 150 146
273 273 254 243 256 254 221 242 285 310 313 303 336 343 346 354 360 4 2 4 12 9 13 17 21 108 139 140 150 159 164 170 174 170 165 161 160 158 156 155 152 151 154 155
269 285 248 242 256 235 222 243 262 298 287 314 340 344 351 1 5 4 2 3 17 19 15 21 35 88 153 170 145 169 167 169 172 168 166 165 163 160 157 156 154 158 158 155
262 283 283 250 227 219 228 228 265 302 285 314 337 357 357 4 6 5 3 8 16 21 15 21 32 59 115 142 192 195 178 178 175 170 167 166 163 160 159 159 159 161 157 155
114 343 297 228 197 213 214 215 271 267 291 329 351 6 5 11 11 9 10 15 17 24 20 19 26 42 62 108 185 177 174 176 172 169 171 169 165 163 165 164 162 161 157 157
203 199 134 121 127 137 171 239 252 212 351 354 14 22 16 18 16 12 14 16 14 23 27 21 20 29 41 151 179 173 181 179 177 174 177 173 168 166 166 165 165 162 160 158
159 172 172 170 189 306 134 98 122 65 30 28 29 33 23 26 20 19 21 18 14 20 27 27 15 22 34 131 177 181 181 179 179 177 175 173 171 169 168 169 168 163 163 160
152 193 210 232 238 164 123 112 104 83 57 41 34 40 31 26 18 19 22 21 19 21 28 31 17 26 36 89 156 180 181 178 169 166 167 169 169 170 172 171 169 165 166 164
92 111 118 119 118 116 113 102 88 71 54 42 41 40 40 35 28 28 24 21 23 23 30 29 24 27 41 92 133 169 182 183 176 173 173 170 170 171 173 171 168 167 168 167
83 95 99 107 110 104 96 87 69 55 43 30 32 34 30 30 27 22 21 21 21 25 30 31 35 24 52 74 96 151 176 180 183 174 168 169 169 172 172 170 169 168 169 169
97 94 94 100 93 80 58 42 27 22 28 22 17 24 23 22 22 19 20 21 21 22 28 29 37 30 24 62 81 97 155 159 174 177 168 165 169 171 172 171 170 167 168 169
84 93 102 100 14 353 338 333 334 341 360 17 15 11 16 12 18 15 15 17 20 20 23 28 33 44 21 33 68 90 99 153 165 181 172 168 170 171 174 174 168 165 167 169